This is the latest recevied weather packets stored in our database for station/object OK5TVR-5. If no packets are shown the sender has not sent any weather packets the latest 10 day(s).
| Time | Temp. | Humidity | Pressure | Rain* | Wind** | Luminosity | Snow |
|---|---|---|---|---|---|---|---|
| 1787860864 | 23.33° C | 52% | 1007.9 hPa | 0 mm | - | 0 W/m² | - |
| 1787859964 | 23.33° C | 53% | 1007.7 hPa | 0 mm | - | 0 W/m² | - |
| 1787859064 | 23.33° C | 52% | 1007.7 hPa | 0 mm | - | 0 W/m² | - |
| 1787858164 | 23.89° C | 51% | 1007.6 hPa | 0 mm | - | 0 W/m² | - |
| 1787857264 | 23.89° C | 51% | 1007.8 hPa | 0 mm | - | 0 W/m² | - |
| 1787856364 | 23.89° C | 51% | 1007.9 hPa | 0 mm | - | 0 W/m² | - |
| 1787855464 | 24.44° C | 50% | 1007.8 hPa | 0 mm | - | 0 W/m² | - |
| 1787854564 | 25° C | 49% | 1007.8 hPa | 0 mm | - | 0 W/m² | - |
| 1787853664 | 25° C | 48% | 1007.6 hPa | 0 mm | - | 1 W/m² | - |
| 1787852764 | 25.56° C | 46% | 1007.5 hPa | 0 mm | - | 3 W/m² | - |
| 1787851864 | 26.67° C | 44% | 1007.5 hPa | 0 mm | - | 7 W/m² | - |
| 1787850964 | 27.22° C | 42% | 1007.4 hPa | 0 mm | - | 9 W/m² | - |
| 1787850064 | 28.33° C | 40% | 1007.2 hPa | 0 mm | - | 15 W/m² | - |
| 1787849164 | 28.89° C | 38% | 1007 hPa | 0 mm | - | 35 W/m² | - |
| 1787848264 | 28.89° C | 38% | 1007.2 hPa | 0 mm | - | 42 W/m² | - |
| 1787847364 | 29.44° C | 36% | 1007.2 hPa | 0 mm | - | 40 W/m² | - |
| 1787846464 | 30° C | 34% | 1007.3 hPa | 0 mm | - | 61 W/m² | - |
| 1787845564 | 30° C | 34% | 1007.1 hPa | 0 mm | - | 60 W/m² | - |
| 1787844664 | 30° C | 35% | 1007.3 hPa | 0 mm | - | 45 W/m² | - |
| 1787843764 | 30.56° C | 33% | 1007.3 hPa | 0 mm | - | 94 W/m² | - |
| 1787842864 | 30° C | 36% | 1007.6 hPa | 0 mm | - | 91 W/m² | - |
| 1787841964 | 30° C | 35% | 1007.6 hPa | 0 mm | - | 83 W/m² | - |
| 1787841064 | 30.56° C | 36% | 1007.3 hPa | 0 mm | - | 105 W/m² | - |
| 1787840164 | 31.11° C | 36% | 1007.1 hPa | 0 mm | - | 137 W/m² | - |
| 1787839264 | 31.67° C | 36% | 1007.2 hPa | 0 mm | - | 151 W/m² | - |
* Rain latest hour (hover to see other rain measurements)
** Current wind speed in m/s (hover to see current wind gust speed)